Location: La Pernelle
(49.6188°N, 1.2999°W)
Time: 10:35:16
(UTC+00:00)

Meteor 2-20 - Pass Details

Date: 27 October 2021
Orbit: 939 x 958 km, 82.5° (Epoch: 08 December)

Event Time Altitude Azimuth Distance (km) Brightness Sun altitude
Rises 17:34:28 0° 340° (NNW) 3,614 7.6 -7.6°
Reaches altitude 10° 17:37:31 10° 325° (NW) 2,665 7.1 -8.0°
Maximum altitude 17:41:56 22° 278° (W) 1,955 7.2 -8.8°
Drops below altitude 10° 17:46:21 10° 231° (SW) 2,656 7.8 -9.5°
Sets 17:49:24 0° 216° (SW) 3,598 8.2 -9.9°
